Date,TemperatureHighF,TemperatureAvgF,TemperatureLowF,DewpointHighF,DewpointAvgF,DewpointLowF,HumidityHigh,HumidityAvg,HumidityLow,PressureMaxIn,PressureMinIn,WindSpeedMaxMPH,WindSpeedAvgMPH,GustSpeedMaxMPH,PrecipitationSumIn
2013-1-1,30,26,17,27,22,14,92,85,72,30.18,30.05,8,2,0,0.01
2013-1-2,21,14,5,14,8,2,92,80,69,30.28,30.16,7,4,0,0.00
2013-1-3,30,23,11,26,17,5,85,78,66,30.29,30.19,14,8,0,0.00
2013-1-4,28,22,14,23,17,11,88,83,75,30.32,30.23,19,9,0,0.00
2013-1-5,36,28,18,31,24,15,92,86,75,30.32,30.08,16,8,0,0.00
2013-1-6,36,31,24,32,27,20,92,85,83,30.34,29.97,20,9,0,0.00
2013-1-7,34,26,16,28,22,14,94,87,77,30.43,30.19,21,7,0,0.00
2013-1-8,39,32,24,31,26,20,89,81,71,30.27,30.17,12,6,0,0.00
2013-1-9,46,41,35,36,33,25,83,74,63,30.48,30.12,17,9,0,0.00
2013-1-10,39,34,27,37,30,24,95,84,68,30.52,30.04,9,2,0,0.19
2013-1-11,57,50,39,53,47,37,97,90,79,30.04,29.74,18,10,0,0.42
2013-1-12,60,53,47,54,50,45,96,88,78,29.93,29.72,15,7,0,0.34
2013-1-13,50,35,21,49,34,18,97,93,86,30.19,29.72,18,7,13,0.62
2013-1-14,22,19,16,18,16,12,92,87,83,30.46,30.20,13,5,0,0.00
2013-1-15,29,23,16,23,19,14,93,85,74,30.45,30.15,10,2,0,0.00
2013-1-16,36,29,23,28,24,21,93,81,61,30.14,29.93,16,7,0,0.01
2013-1-17,37,30,22,29,24,16,92,77,59,30.40,30.05,15,5,0,0.00
2013-1-18,39,30,20,28,21,15,86,73,58,30.47,30.07,27,13,0,0.00
2013-1-19,50,42,37,37,32,28,78,68,58,30.07,29.79,26,16,0,0.00
2013-1-20,42,24,19,34,13,8,75,61,50,30.25,29.81,35,10,0,0.00
2013-1-21,20,14,8,9,3,-4,83,62,48,30.27,30.13,21,10,0,0.00
2013-1-22,13,8,4,0,-3,-5,78,63,53,30.41,30.27,17,8,0,0.00
2013-1-23,21,15,10,14,6,0,83,67,55,30.38,30.13,15,7,0,0.00
2013-1-24,22,17,10,15,8,4,88,69,49,30.64,30.19,13,4,0,0.00
2013-1-25,26,22,18,22,16,10,90,80,67,30.45,30.04,12,7,0,0.00
2013-1-26,28,25,21,22,18,16,84,76,70,30.45,30.09,9,4,0,0.00
2013-1-27,35,27,19,33,23,15,94,83,75,30.44,30.07,14,5,0,0.23
2013-1-28,50,46,35,49,45,33,98,96,94,30.07,29.92,21,9,0,0.03
2013-1-29,60,56,48,57,54,47,98,94,89,29.93,29.34,30,16,0,0.44
2013-1-30,62,46,28,58,44,24,98,93,83,29.51,29.18,25,11,0,0.57
2013-1-31,28,19,10,24,14,3,89,79,68,30.09,29.52,24,14,0,0.00
2013-2-1,16,10,5,10,4,-1,84,76,69,30.41,30.10,18,10,0,0.00
2013-2-2,26,21,16,23,18,10,92,88,79,30.28,30.00,19,8,0,0.00
2013-2-3,22,17,11,18,12,6,89,84,78,30.09,29.97,15,6,0,0.00
2013-2-4,31,24,16,26,21,13,93,88,80,30.09,29.84,10,4,0,0.00
2013-2-5,33,25,14,30,22,13,95,88,75,30.04,29.83,18,5,0,0.00
2013-2-6,36,31,28,28,25,23,86,78,66,30.27,30.05,9,4,0,0.00
2013-2-7,47,37,30,39,32,27,96,85,71,30.20,29.79,12,3,0,0.04
2013-2-8,40,33,29,39,28,22,96,83,73,30.36,29.79,17,8,0,0.00
2013-2-9,38,30,23,28,24,20,93,82,65,30.43,30.20,13,4,0,0.00
2013-2-10,48,40,32,47,35,26,95,83,74,30.19,29.63,25,11,0,0.10
2013-2-11,49,38,32,47,31,24,93,75,68,30.00,29.61,27,15,0,0.01
2013-2-12,36,31,28,29,25,22,83,79,72,30.12,29.95,14,6,0,0.00
2013-2-13,44,33,24,33,27,22,94,81,59,29.95,29.75,10,4,0,0.00
2013-2-14,43,37,32,37,32,27,93,84,71,29.96,29.74,25,10,0,0.00
2013-2-15,33,29,23,27,23,18,88,79,61,30.17,29.95,12,4,0,0.00
2013-2-16,25,21,16,22,14,6,89,74,54,30.16,30.09,17,6,0,0.00
2013-2-17,29,21,12,18,13,7,84,71,52,30.25,30.16,14,5,0,0.00
2013-2-18,53,39,24,43,30,16,89,71,62,30.16,29.53,29,14,0,0.10
2013-2-19,45,23,16,42,18,10,93,82,75,30.12,29.49,35,15,0,0.05
2013-2-20,22,18,11,18,11,6,83,76,70,30.36,30.13,15,8,0,0.00
2013-2-21,27,25,22,21,19,17,90,79,74,30.39,30.08,16,6,0,0.00
2013-2-22,35,30,23,34,28,20,97,93,85,30.07,29.87,18,6,0,0.10
2013-2-23,30,28,26,27,23,21,86,81,74,29.98,29.93,14,7,0,0.00
2013-2-24,36,30,23,25,23,20,92,76,62,30.16,29.98,9,3,0,0.01
2013-2-25,42,33,24,31,27,22,94,80,60,30.20,29.97,13,4,0,0.00
2013-2-26,34,33,32,34,30,27,96,89,76,29.96,29.43,17,6,0,0.87
2013-2-27,34,33,31,33,32,30,97,95,90,29.64,29.45,18,8,0,0.20
2013-2-28,38,34,32,34,32,29,97,90,84,29.98,29.62,11,6,0,0.04
2013-3-1,34,31,27,30,27,22,95,85,72,30.12,29.96,10,5,0,0.01
2013-3-2,33,28,25,23,21,19,83,73,62,30.12,30.07,13,7,0,0.00
2013-3-3,32,29,24,21,17,-100,81,67,60,30.11,30.06,12,-17,0,0.00
2013-3-4,37,28,19,29,22,17,93,77,53,30.16,30.02,11,2,0,0.00
2013-3-5,34,31,28,31,29,27,96,92,81,30.04,29.70,18,6,0,0.01
2013-3-6,35,31,27,31,28,25,96,90,80,30.26,29.80,21,8,0,0.16
2013-3-7,38,34,28,31,28,23,94,82,66,30.41,30.26,7,3,0,0.08
2013-3-8,40,30,18,27,23,17,94,78,58,30.51,30.40,5,1,0,0.00
2013-3-9,44,35,26,36,30,22,89,81,70,30.39,29.95,12,4,0,0.01
2013-3-10,62,52,43,48,41,36,80,66,53,29.95,29.71,22,9,0,0.02
2013-3-11,55,45,34,49,42,32,96,90,62,29.79,29.56,21,10,0,0.15
2013-3-12,37,33,30,31,28,24,94,81,67,29.99,29.79,22,10,0,0.00
2013-3-13,32,28,26,28,20,15,88,73,52,30.32,29.99,18,8,0,0.00
2013-3-14,41,31,23,30,22,17,89,70,49,30.35,30.14,12,5,0,0.00
2013-3-15,48,38,30,42,34,28,95,88,68,30.14,29.77,11,4,0,0.07
2013-3-16,42,37,31,41,35,27,97,92,80,30.08,29.61,14,5,0,0.00
2013-3-17,37,31,30,27,25,24,85,78,66,30.20,30.06,16,6,0,0.00
2013-3-18,37,32,29,37,30,24,97,91,77,30.05,29.57,15,7,0,0.06
2013-3-19,36,29,22,25,18,14,81,66,51,30.07,29.80,29,14,0,0.00
2013-3-20,31,26,21,20,14,8,76,61,44,30.07,29.99,26,10,0,0.00
2013-3-21,34,25,16,19,14,11,85,67,43,30.04,29.99,16,6,0,0.00
2013-3-22,41,31,20,21,19,17,88,63,41,30.07,29.99,14,3,0,0.00
2013-3-23,41,33,26,28,24,18,85,69,54,30.11,29.97,14,3,0,0.00
2013-3-24,36,31,28,29,26,24,95,81,65,29.99,29.54,23,8,0,0.00
2013-3-25,36,32,28,31,29,27,96,87,73,29.99,29.56,17,9,0,0.05
2013-3-26,38,34,31,31,29,25,92,82,58,30.22,29.99,14,6,0,0.00
2013-3-27,42,36,28,31,28,26,90,71,54,30.31,30.22,13,6,0,0.00
2013-3-28,48,36,27,33,27,24,90,72,48,30.35,30.28,15,4,0,0.00
2013-3-29,53,44,30,33,28,23,92,57,35,30.32,30.21,10,3,0,0.00
2013-3-30,55,42,28,39,31,23,90,66,47,30.24,29.92,15,4,0,0.00
2013-3-31,59,50,41,44,39,31,96,69,44,29.91,29.68,18,7,0,0.00
2013-4-1,41,36,29,33,23,17,79,61,41,30.15,29.80,13,6,0,0.00
2013-4-2,44,31,24,20,17,11,82,61,28,30.29,30.15,10,3,0,0.00
2013-4-3,47,36,22,22,17,11,87,50,24,30.45,30.29,16,3,0,0.00
2013-4-4,57,40,28,25,21,16,71,50,25,30.34,29.98,9,3,0,0.00
2013-4-5,54,44,36,34,25,18,76,50,25,30.17,29.95,14,5,0,0.00
2013-4-6,66,50,33,42,32,26,74,53,36,30.15,29.74,24,11,0,0.00
2013-4-7,67,58,49,47,42,39,86,60,37,29.93,29.68,22,9,0,0.02
2013-4-8,73,58,46,57,48,38,91,71,53,29.94,29.74,28,8,0,0.07
2013-4-9,78,64,52,63,54,46,83,72,51,29.98,29.81,30,9,0,0.01
2013-4-10,72,61,48,67,57,47,96,88,77,29.86,29.73,17,7,0,0.94
2013-4-11,50,47,45,49,46,44,97,96,95,29.80,29.62,15,6,0,0.43
2013-4-12,41,40,40,35,34,34,81,79,78,29.70,29.70,13,10,0,0.09
2013-4-14,63,63,63,51,51,51,64,64,64,29.80,29.80,2,2,0,0.00
2013-4-19,39,38,34,33,32,31,92,79,74,29.90,29.70,24,14,0,1.06
2013-4-20,44,38,32,32,28,24,92,70,47,30.44,29.90,15,7,0,0.00
2013-4-21,51,40,30,35,27,22,78,61,41,30.56,30.39,14,3,0,0.00
2013-4-22,65,50,33,42,36,31,91,64,34,30.39,30.10,9,3,0,0.00
2013-4-23,67,56,44,56,48,39,97,76,59,30.10,29.78,27,8,0,1.04
2013-4-24,46,41,37,43,36,32,95,83,64,30.18,29.79,19,8,0,0.20
2013-4-25,50,44,37,39,33,25,87,66,41,30.36,30.15,21,8,12,0.00
2013-4-26,61,48,34,43,37,29,89,66,46,30.43,30.32,15,6,0,0.00
2013-4-27,68,55,39,51,42,37,91,65,37,30.33,30.01,18,5,0,0.00
2013-4-28,61,56,52,57,54,51,96,91,83,30.01,29.79,8,2,0,0.31
2013-4-29,68,60,55,57,55,53,96,83,65,29.94,29.84,13,5,0,0.00
2013-4-30,78,66,55,63,57,51,87,74,58,29.98,29.88,19,10,0,0.00
2013-5-1,82,71,56,60,56,52,88,63,42,30.12,29.97,13,4,0,0.00
2013-5-2,79,69,60,59,56,55,84,66,46,30.14,30.03,17,4,0,0.00
2013-5-3,76,68,59,61,57,46,88,69,48,30.03,29.89,21,6,0,0.00
2013-5-4,71,64,58,53,46,40,81,52,33,29.97,29.91,19,6,0,0.00
2013-5-5,69,61,54,53,50,46,87,68,50,29.98,29.92,16,4,0,0.00
2013-5-6,72,63,55,57,50,44,83,63,53,29.97,29.90,14,4,0,0.00
2013-5-7,75,66,57,57,54,52,85,68,47,29.99,29.91,10,3,0,0.00
2013-5-8,78,65,53,58,54,51,95,70,42,29.99,29.91,9,2,0,0.01
2013-5-9,79,64,53,60,56,51,95,77,39,29.96,29.84,15,3,0,0.11
2013-5-10,66,60,46,60,56,44,95,87,74,29.88,29.75,15,8,0,0.17
2013-5-11,61,47,43,53,43,35,96,86,69,29.99,29.80,21,6,0,0.07
2013-5-12,52,44,37,36,33,30,89,65,43,30.12,30.00,17,5,0,0.00
2013-5-13,61,49,34,37,30,20,92,55,20,30.18,30.08,14,3,0,0.00
2013-5-14,85,68,50,62,49,31,66,52,43,30.09,29.71,27,11,0,0.00
2013-5-15,86,77,69,62,57,48,66,52,30,29.77,29.67,19,9,0,0.00
2013-5-16,84,71,58,59,51,42,89,54,24,29.92,29.75,10,2,0,0.00
2013-5-17,80,65,56,66,56,48,95,72,47,30.03,29.93,15,3,0,0.11
2013-5-18,80,67,57,64,56,45,89,68,58,30.06,29.94,9,2,0,0.00
2013-5-19,85,74,58,66,61,52,80,66,49,29.95,29.79,14,4,0,0.00
2013-5-20,87,78,70,70,68,66,93,73,54,29.85,29.75,26,12,0,0.00
2013-5-21,86,75,64,69,64,61,93,70,44,29.77,29.67,25,13,0,0.02
2013-5-22,76,69,63,65,63,59,93,81,61,29.71,29.63,25,11,0,0.09
2013-5-23,63,56,46,61,53,43,94,89,84,30.15,29.71,17,7,0,0.07
2013-5-24,63,52,41,44,40,36,94,67,39,30.36,30.16,13,6,0,0.00
2013-5-25,64,53,39,46,41,37,94,67,44,30.37,30.23,8,2,0,0.00
2013-5-26,70,60,45,54,45,41,92,60,38,30.29,30.14,12,3,0,0.00
2013-5-27,64,58,50,62,55,49,97,89,69,30.16,29.86,13,2,0,1.30
2013-5-28,79,71,63,71,66,61,97,85,72,29.90,29.80,20,10,0,0.24
2013-5-29,84,76,70,69,66,62,83,71,57,29.95,29.85,22,10,0,0.00
2013-5-30,85,77,68,71,67,64,85,72,58,29.99,29.86,26,12,0,0.00
2013-5-31,76,72,65,71,67,63,96,85,71,29.92,29.79,18,10,0,1.48
2013-6-1,72,69,64,70,65,63,97,88,78,29.82,29.69,20,9,0,0.32
2013-6-2,68,61,50,64,57,43,94,86,75,29.99,29.70,15,7,0,0.01
2013-6-3,68,56,45,50,44,39,94,68,44,30.08,29.98,10,3,0,0.00
2013-6-4,74,63,48,52,49,46,93,64,40,30.14,30.06,10,2,0,0.00
2013-6-5,78,67,55,55,51,45,77,57,41,30.08,29.87,8,3,0,0.00
2013-6-6,77,66,58,57,52,44,78,63,48,29.89,29.77,12,5,0,0.00
2013-6-7,72,64,58,58,56,53,93,75,54,29.87,29.80,10,3,0,0.00
2013-6-8,78,66,53,59,54,51,95,67,42,29.98,29.87,12,2,0,0.00
2013-6-9,82,72,65,66,61,56,93,70,42,29.99,29.81,14,4,0,0.22
2013-6-10,78,70,64,66,64,62,97,84,62,29.81,29.71,13,5,0,0.52
2013-6-11,83,71,61,68,65,60,97,82,56,29.91,29.79,11,3,0,0.01
2013-6-12,88,77,66,76,71,65,97,84,64,29.87,29.57,18,5,0,0.01
2013-6-13,75,29,61,58,-33,-100,79,28,54,29.92,0.00,22,-567,0,0.00
2013-6-14,79,67,56,63,58,54,94,74,48,30.06,29.92,8,3,0,0.00
2013-6-15,76,68,59,68,63,58,97,86,66,30.06,29.89,12,2,0,0.01
2013-6-16,80,73,66,71,67,64,94,82,69,29.90,29.85,12,5,0,0.04
2013-6-17,82,71,68,72,68,66,97,89,60,29.91,29.83,7,3,0,0.00
2013-6-18,72,68,66,68,64,62,91,84,77,29.90,29.82,6,2,0,0.00
2013-6-21,87,80,73,67,65,61,79,62,43,30.07,29.91,21,7,23,0.00
2013-6-22,87,74,68,76,68,65,91,83,65,30.07,29.94,14,5,11,0.02
2013-6-23,87,75,67,72,68,65,96,81,54,30.06,29.95,18,6,0,0.02
2013-6-24,85,76,67,73,69,64,95,81,58,30.06,29.91,20,7,0,0.43
2013-6-25,88,77,66,76,70,64,97,80,60,29.96,29.78,18,7,0,0.02
2013-6-26,80,72,68,74,69,66,96,91,79,29.85,29.68,15,3,0,0.39
2013-6-27,84,75,71,74,71,68,98,86,67,29.73,29.63,15,3,0,0.23
2013-6-28,81,72,65,68,65,59,96,79,51,29.63,29.54,15,3,0,0.64
2013-7-2,69,67,67,66,52,-100,96,86,92,29.99,29.95,10,5,7,0.74
2013-7-3,78,71,65,68,66,64,98,83,65,30.05,29.97,18,5,0,0.01
2013-7-4,79,70,61,68,63,60,98,81,55,30.11,30.03,4,0,0,0.00
2013-7-5,81,73,65,70,68,64,97,83,65,30.08,30.00,10,2,0,0.00
2013-7-6,75,71,68,71,69,67,97,92,84,30.06,29.97,11,2,0,0.23
2013-7-7,81,73,65,73,69,64,97,87,69,30.03,29.95,13,5,0,0.00
2013-7-8,82,76,69,76,72,67,94,87,78,30.04,29.93,13,5,0,0.08
2013-7-9,86,80,74,78,75,72,94,85,74,29.97,29.86,13,5,0,0.00
2013-7-10,83,76,64,78,71,61,95,86,70,29.94,29.78,35,7,0,1.40
2013-7-11,77,67,58,62,59,56,96,76,50,30.04,29.93,15,4,0,0.00
2013-7-12,80,69,57,65,60,55,95,74,49,30.10,30.02,8,2,0,0.00
2013-7-13,83,72,59,69,64,57,95,78,59,30.12,30.07,8,2,0,0.00
2013-7-14,89,78,66,76,71,65,97,81,60,30.16,30.11,1,0,0,0.00
2013-7-15,88,79,72,77,74,71,97,84,65,30.24,30.16,10,2,0,0.00
2013-7-16,92,81,70,78,73,69,98,79,55,30.29,30.22,6,1,0,0.00
2013-7-17,92,81,72,77,74,71,97,79,56,30.29,30.13,10,1,0,0.00
2013-7-18,91,82,72,78,75,71,96,81,59,30.16,29.95,10,2,0,0.00
2013-7-19,90,82,74,78,75,72,93,80,64,29.97,29.76,22,7,0,0.00
2013-7-20,86,79,69,76,72,66,96,81,57,29.86,29.73,15,5,0,0.36
2013-7-21,87,76,65,73,69,64,96,80,56,29.93,29.83,5,1,0,0.00
2013-7-22,82,74,67,73,70,66,97,87,68,29.85,29.73,6,1,0,0.77
2013-7-23,82,71,60,70,65,55,96,80,65,29.87,29.66,15,6,19,0.00
2013-7-24,73,63,52,60,55,50,94,76,53,30.00,29.87,11,4,15,0.00
2013-7-25,78,66,54,63,57,52,97,76,48,30.09,30.00,6,1,6,0.00
2013-7-26,62,60,58,58,57,56,94,92,89,30.07,30.02,0,0,0,0.00
2013-7-31,72,70,67,70,68,65,95,92,91,29.93,29.90,6,2,0,0.00
2013-8-1,79,66,62,68,63,59,98,90,55,29.96,29.90,11,2,0,0.01
2013-8-2,82,67,57,71,64,56,97,89,70,29.95,29.82,21,4,0,2.57
2013-8-3,79,69,62,68,62,55,98,80,52,30.04,29.90,12,3,0,0.23
2013-8-4,75,66,54,61,57,53,95,74,50,30.15,30.04,12,2,0,0.00
2013-8-5,75,66,56,67,60,55,96,83,65,30.09,29.91,7,2,0,0.00
2013-8-6,77,70,64,71,66,60,94,88,80,29.91,29.85,9,4,0,0.00
2013-8-7,82,75,69,75,72,68,98,90,77,29.87,29.80,12,4,0,0.00
2013-8-8,75,71,68,71,69,66,96,91,83,29.93,29.86,7,3,0,0.09
2013-8-9,82,72,64,69,66,61,96,81,53,29.99,29.89,6,2,0,0.00
2013-8-10,83,73,65,71,66,64,95,81,52,30.05,29.99,8,2,0,0.00
2013-8-11,81,71,61,67,64,61,98,81,54,30.08,30.02,8,2,0,0.00
2013-8-12,83,72,61,72,67,59,97,85,64,30.04,29.82,10,3,0,0.01
2013-8-13,69,64,55,66,56,49,96,78,51,30.08,29.84,14,6,0,0.01
2013-8-14,70,59,48,56,51,46,94,76,52,30.19,30.08,14,3,0,0.00
2013-8-15,74,60,47,59,53,46,98,80,47,30.18,30.08,6,1,0,0.00
2013-8-16,77,65,56,62,58,55,97,80,53,30.16,30.10,5,1,0,0.00
2013-8-17,78,65,54,66,59,53,97,80,54,30.21,30.13,6,2,0,0.01
2013-8-18,84,69,56,68,61,55,97,77,42,30.17,30.07,4,1,0,0.00
2013-8-19,83,70,57,68,63,56,98,81,53,30.10,30.02,7,1,0,0.00
2013-8-20,84,72,60,72,66,59,98,81,57,30.12,30.04,6,1,0,0.00
2013-8-21,86,74,64,74,68,62,95,81,57,30.11,29.97,9,2,0,0.00
2013-8-22,78,71,68,72,68,66,96,90,79,30.07,29.96,9,3,0,0.08
2013-8-23,82,71,63,70,65,59,98,82,52,30.13,30.03,7,2,0,0.00
2013-8-24,83,69,55,62,58,54,96,72,41,30.26,30.13,7,1,0,0.00
2013-8-25,86,71,56,69,62,55,98,77,49,30.27,30.16,9,2,0,0.00
2013-8-26,88,74,62,75,68,59,92,80,58,30.18,30.01,10,3,0,0.00
2013-8-27,89,79,71,79,73,69,93,83,69,30.01,29.86,12,5,0,0.00
2013-8-28,86,79,72,78,73,69,95,82,70,29.95,29.82,13,6,0,0.00
2013-8-29,88,76,68,75,70,67,98,84,56,30.03,29.95,5,1,0,0.00
2013-8-30,90,76,63,75,70,62,98,81,57,29.95,29.69,10,4,0,0.00
2013-8-31,80,73,68,74,70,67,96,90,66,29.84,29.70,9,2,0,0.55
2013-9-1,78,71,66,73,70,66,98,94,83,29.76,29.72,10,4,0,0.00
2013-9-2,79,71,60,69,65,56,98,81,57,29.92,29.70,16,5,0,0.01
2013-9-3,74,62,51,62,56,50,97,82,58,30.04,29.91,9,2,0,0.00
2013-9-4,82,65,51,64,58,50,98,80,48,30.11,30.02,10,2,0,0.00
2013-9-5,78,66,57,61,57,49,98,74,46,30.19,30.08,8,2,0,0.01
2013-9-6,82,65,49,66,54,47,94,70,39,30.23,30.04,5,1,0,0.00
2013-9-7,86,72,58,68,63,56,91,75,50,30.04,29.87,10,3,0,0.00
2013-9-8,80,71,63,70,66,62,97,84,72,29.97,29.89,13,3,0,0.00
2013-9-9,91,76,62,74,68,60,95,79,55,29.97,29.84,20,5,0,0.00
2013-9-10,95,83,74,74,71,67,93,69,41,30.02,29.90,12,6,0,0.00
2013-9-11,93,81,72,73,70,67,91,71,44,30.04,29.91,19,5,0,0.00
2013-9-12,82,72,60,70,64,54,97,78,47,29.96,29.80,16,4,0,0.28
2013-9-13,66,57,48,54,47,44,89,71,47,30.11,29.96,17,5,0,0.00
2013-9-14,71,54,40,53,42,36,97,72,29,30.20,30.07,8,1,0,0.00
2013-9-15,71,56,45,58,50,43,96,82,48,30.10,29.98,11,3,0,0.10
2013-9-16,67,59,53,56,54,49,97,84,59,30.30,30.09,10,3,0,0.00
2013-9-17,72,58,46,55,50,44,96,75,51,30.34,30.15,9,2,0,0.00
2013-9-18,80,67,54,64,57,48,96,73,50,30.14,29.97,11,3,0,0.03
2013-9-19,76,70,65,71,68,64,98,93,80,30.01,29.84,13,4,0,1.39
2013-9-20,76,72,64,71,68,61,97,89,73,29.88,29.74,13,6,0,0.06
2013-9-21,69,60,50,60,52,47,95,77,48,29.88,29.72,17,5,0,0.01
2013-9-22,66,56,49,51,47,45,97,76,49,30.03,29.88,11,3,0,0.00
2013-9-23,70,55,42,50,46,40,96,75,46,30.12,30.03,7,2,0,0.00
2013-9-24,72,57,44,51,48,42,96,74,44,30.09,29.92,7,2,0,0.00
2013-9-25,74,60,49,55,51,48,95,74,43,29.95,29.88,9,2,0,0.00
2013-9-26,79,62,50,58,52,48,97,75,41,30.07,29.93,7,2,0,0.01
2013-9-27,80,63,45,54,49,43,93,65,33,30.17,30.06,7,2,0,0.00
2013-9-28,82,66,49,58,54,48,96,69,41,30.13,29.96,17,4,0,0.00
2013-9-29,68,63,53,62,58,52,96,85,65,29.97,29.93,9,3,0,0.09
2013-9-30,73,58,48,60,54,48,98,88,60,30.01,29.90,14,2,0,0.02
2013-10-1,73,64,58,64,61,57,98,89,71,30.01,29.94,16,6,0,0.00
2013-10-2,80,67,61,69,64,60,98,91,66,30.07,29.97,7,2,0,0.01
2013-10-3,79,70,62,70,66,61,98,86,68,30.00,29.88,18,4,0,0.02
2013-10-4,85,75,67,71,68,64,92,79,56,29.98,29.91,13,6,0,0.00
2013-10-5,80,70,66,72,68,64,97,91,68,29.96,29.81,16,6,0,0.17
2013-10-6,67,60,47,65,56,41,97,87,65,29.82,29.67,17,6,0,0.53
2013-10-7,62,51,44,49,44,41,92,80,55,30.12,29.76,15,5,0,0.00
2013-10-8,73,57,45,52,48,43,96,75,44,30.23,30.12,13,2,0,0.00
2013-10-9,73,57,43,51,46,41,95,70,38,30.25,30.14,8,2,0,0.00
2013-10-10,75,58,44,53,47,43,97,71,38,30.18,30.06,5,1,0,0.00
2013-10-11,78,60,44,53,48,43,97,70,36,30.10,29.99,8,1,0,0.00
2013-10-12,79,63,47,62,54,46,97,74,42,30.09,29.98,14,3,0,0.00
2013-10-13,68,59,47,62,47,41,86,66,40,30.34,30.09,12,5,0,0.00
2013-10-14,68,52,40,51,44,38,97,77,47,30.37,30.19,10,2,0,0.01
2013-10-15,66,57,47,62,54,45,96,90,84,30.20,29.84,15,4,0,0.04
2013-10-16,64,53,46,62,48,43,93,82,69,29.94,29.84,17,6,0,0.00
2013-10-17,51,47,42,48,44,40,96,91,79,29.93,29.83,9,3,0,0.03
2013-10-18,63,48,41,48,42,38,94,80,51,29.97,29.89,14,5,0,0.01
2013-10-19,53,45,40,42,39,35,95,80,53,29.93,29.82,19,4,0,0.15
2013-10-20,65,52,41,45,41,36,85,67,47,29.93,29.83,20,10,0,0.00
2013-10-21,56,49,38,47,42,29,86,75,65,29.96,29.85,16,7,0,0.00
2013-10-22,46,34,30,31,28,26,86,77,50,30.01,29.95,8,4,0,0.00
2013-10-26,55,48,40,38,36,34,77,65,46,30.05,29.90,14,3,0,0.00
2013-10-27,55,42,31,35,32,29,93,69,43,30.09,30.02,13,3,0,0.00
2013-10-28,60,44,29,37,33,27,96,69,38,30.32,30.07,6,1,0,0.00
2013-10-29,55,45,34,43,39,32,93,80,60,30.38,30.19,9,1,0,0.00
2013-10-30,64,54,44,63,51,41,97,87,76,30.19,29.89,19,4,0,0.06
2013-10-31,64,61,54,62,60,52,96,95,92,29.88,29.21,24,15,0,0.90
2013-11-1,53,48,45,51,44,42,94,85,74,29.71,29.32,17,9,0,0.02
2013-11-2,47,45,42,44,42,40,93,90,85,30.09,29.71,11,4,0,0.05
2013-11-3,50,43,35,42,39,34,97,86,65,30.34,30.09,8,2,0,0.00
2013-11-4,55,46,38,43,39,36,91,77,60,30.36,30.23,17,8,0,0.00
2013-11-5,57,52,48,50,46,42,93,79,69,30.33,30.09,15,8,0,0.02
2013-11-6,58,52,42,53,48,40,94,86,63,30.08,29.82,29,13,0,0.15
2013-11-7,47,40,32,39,33,29,90,77,51,30.24,30.07,14,6,0,0.02
2013-11-8,47,38,30,35,32,28,93,78,55,30.35,30.14,11,5,0,0.00
2013-11-9,60,51,43,44,38,32,69,62,50,30.13,29.91,29,14,0,0.01
2013-11-10,48,41,34,39,31,27,84,69,57,30.31,30.02,27,7,0,0.00
2013-11-11,49,40,30,40,34,24,94,79,62,30.37,30.07,24,9,0,0.03
2013-11-12,34,29,24,27,23,19,86,79,68,30.63,30.38,10,5,0,0.00
2013-11-13,38,28,20,23,20,17,89,72,49,30.62,30.30,19,9,0,0.00
2013-11-14,52,40,29,27,24,22,77,57,33,30.29,30.05,22,13,0,0.00
2013-11-15,52,45,39,35,30,26,77,57,47,30.07,30.00,17,9,0,0.00
2013-11-16,60,50,40,57,47,34,94,89,78,30.03,29.72,26,12,0,0.03
2013-11-17,64,59,47,61,56,41,95,90,78,29.73,29.28,27,17,0,0.19
2013-11-18,47,41,35,40,34,29,86,75,61,30.19,29.68,24,10,0,0.02
2013-11-19,43,34,30,31,28,26,88,78,60,30.36,30.19,7,2,0,0.00
2013-11-20,44,36,28,37,30,25,89,79,65,30.36,30.17,15,4,0,0.01
2013-11-21,48,46,43,47,42,37,97,88,72,30.25,30.15,14,7,0,0.06
2013-11-22,48,41,31,48,39,28,98,92,84,30.43,30.14,16,5,0,0.04
2013-11-23,31,25,20,28,21,16,90,82,70,30.63,30.38,22,8,16,0.00
2013-11-24,26,20,15,17,14,11,89,76,57,30.71,30.50,13,4,14,0.00
2013-11-25,33,27,18,27,19,12,92,72,58,30.50,30.16,20,10,21,0.00
2013-11-26,35,31,28,29,27,25,91,84,76,30.17,29.98,14,6,17,0.06
2013-11-27,28,25,22,25,20,14,91,83,74,30.28,30.01,17,7,18,0.00
2013-11-28,35,27,22,22,18,15,80,69,52,30.46,30.23,23,7,21,0.00
2013-11-29,37,25,17,24,19,15,93,80,56,30.65,30.47,7,1,4,0.05
2013-11-30,49,37,29,33,28,23,82,69,50,30.50,30.11,19,8,0,0.09
2013-12-1,46,39,31,36,32,27,87,76,62,30.11,29.98,10,4,0,0.00
2013-12-2,42,36,31,34,31,28,92,85,68,29.98,29.82,10,2,0,0.01
2013-12-3,50,42,35,47,41,33,96,93,90,29.82,29.74,13,5,0,0.04
2013-12-4,59,51,42,57,50,41,98,95,92,29.80,29.61,17,8,0,0.00
2013-12-5,59,36,26,56,31,20,93,82,73,30.20,29.63,18,8,0,0.01
2013-12-6,28,26,21,23,21,17,83,79,77,30.45,30.18,11,5,0,0.00
2013-12-7,26,20,15,17,14,12,87,77,59,30.65,30.46,11,4,0,0.00
2013-12-8,28,23,17,27,18,13,95,83,72,30.57,29.99,14,6,0,0.00
2013-12-9,29,24,17,28,19,10,95,83,74,30.23,29.96,20,10,0,0.00
2013-12-10,26,17,5,15,9,1,83,71,59,30.33,30.11,25,9,0,0.00
2013-12-11,23,17,6,19,13,1,90,82,74,30.54,30.32,15,5,0,0.00
2013-12-12,26,12,-1,11,3,-6,84,69,48,30.57,30.31,21,7,0,0.00
2013-12-13,36,25,14,28,18,8,94,74,62,30.31,30.14,10,5,0,0.00
2013-12-14,30,27,23,29,26,21,95,94,91,30.16,29.80,12,6,0,0.00
2013-12-15,26,18,13,25,14,9,93,86,79,30.14,29.92,18,8,0,0.00
2013-12-16,22,17,13,19,14,9,94,87,77,30.19,30.04,9,2,0,0.00
2013-12-17,28,23,18,26,21,17,94,91,81,30.11,30.00,18,8,0,0.00
2013-12-18,36,25,13,24,18,9,87,77,62,30.25,29.94,23,10,0,0.00
2013-12-19,44,41,36,41,35,25,90,80,64,29.98,29.85,17,9,0,0.18
2013-12-20,56,48,42,55,47,40,98,96,85,29.85,29.70,18,8,0,0.14
2013-12-21,45,37,35,43,36,34,97,96,92,29.82,29.49,19,5,0,0.09
2013-12-22,38,35,31,37,34,28,98,95,91,30.06,29.49,21,9,0,0.11
2013-12-23,30,24,10,29,20,6,92,84,69,30.44,30.06,15,9,0,0.01
2013-12-24,18,11,4,14,7,-1,89,82,77,30.60,30.44,14,6,0,0.00
2013-12-25,28,24,18,26,20,14,91,84,77,30.49,30.14,18,10,0,0.00
2013-12-26,34,28,18,28,23,14,95,81,71,30.34,30.11,19,9,0,0.02
2013-12-27,43,36,28,35,30,25,89,80,71,30.35,30.17,17,9,0,0.12
2013-12-28,49,41,35,39,34,31,86,77,67,30.17,29.91,19,10,0,0.10
2013-12-29,42,35,25,35,30,22,91,81,74,30.07,29.77,16,9,0,0.05
2013-12-30,25,23,21,22,19,17,88,85,83,30.14,30.08,16,10,0,0.00